Overview Statistics Trail Chart Weather Telemetry Raw packets
 

This is the latest recevied weather packets stored in our database for station/object NL3D. If no packets are shown the sender has not sent any weather packets the latest 10 day(s).

<< 44 45 46 47 48 49 50 >>
Time Temp. Humidity Pressure Rain* Wind** Luminosity Snow
1777401800 3.33° C 94% 1011.7 hPa 0.51 mm - 174 W/m² -
1777401499 3.33° C 95% 1011.6 hPa 0.51 mm - 114 W/m² -
1777401195 3.33° C 94% 1011.5 hPa 0.51 mm - 80 W/m² -
1777400891 2.78° C 94% 1011.5 hPa 0.51 mm - 59 W/m² -
1777400587 2.78° C 95% 1011.4 hPa 0.51 mm - 66 W/m² -
1777400285 2.78° C 96% 1011.4 hPa 0.51 mm - 75 W/m² -
1777399980 2.78° C 96% 1011.4 hPa 1.27 mm - 79 W/m² -
1777399677 2.78° C 96% 1011.3 hPa 1.27 mm - 70 W/m² -
1777399374 2.78° C 96% 1011.3 hPa 1.27 mm - 86 W/m² -
1777399072 2.78° C 95% 1011.3 hPa 1.78 mm - 86 W/m² -
1777398769 2.78° C 95% 1011 hPa 1.27 mm - 84 W/m² -
1777398466 2.78° C 95% 1011.1 hPa 0.51 mm - 87 W/m² -
1777398163 2.78° C 94% 1010.8 hPa 1.27 mm - 96 W/m² -
1777397859 2.78° C 94% 1010.6 hPa 0.51 mm - 73 W/m² -
1777397554 2.78° C 95% 1010.6 hPa 0.51 mm - 63 W/m² -
1777397251 2.78° C 95% 1010.5 hPa 1.27 mm - 69 W/m² -
1777396948 2.78° C 94% 1010.3 hPa 0.51 mm - 55 W/m² -
1777396645 2.78° C 94% 1010.2 hPa 0.51 mm - 36 W/m² -
1777396342 2.78° C 94% 1010.1 hPa 0.51 mm - 43 W/m² -
1777396039 2.78° C 93% 1010.2 hPa 0.51 mm - 46 W/m² -
1777395739 2.78° C 94% 1009.9 hPa 1.27 mm - 68 W/m² -
1777395434 2.78° C 94% 1010 hPa 0.51 mm - 62 W/m² -
1777395133 2.78° C 94% 1009.9 hPa 0 mm - 85 W/m² -
1777394830 2.78° C 94% 1009.6 hPa 0 mm - 69 W/m² -
1777394525 2.78° C 94% 1009.9 hPa 0 mm - 73 W/m² -

* Rain latest hour (hover to see other rain measurements)
** Current wind speed in m/s (hover to see current wind gust speed)